Rockland, ME

12:48 AM EDT on May 24, 2018 (GMT -0400)
Knox County Regional

Weather History for KRKD - January, 2012

Change the Weather History Date:

Wednesday, January 25, 2012

  Actual Average Record
Temperature  
Mean Temperature 32 °F -  
Max Temperature 37 °F 26 °F 46 °F (1997)
Min Temperature 28 °F 11 °F -14 °F (2009)
Degree Days  
Heating Degree Days 32    
Moisture  
Dew Point 22 °F    
Average Humidity 62    
Maximum Humidity 81    
Minimum Humidity 48    
Precipitation  
Precipitation 0.00 in - - ()
Sea Level Pressure  
Sea Level Pressure 30.05 in    
Wind  
Wind Speed 11 mph (WNW)    
Max Wind Speed 25 mph    
Max Gust Speed 36 mph    
Visibility 10 miles    
Events      
Averages and records for this station are not official NWS values.
T = Trace of Precipitation, MM = Missing Value Source: NWS Daily Summary

Daily Weather History Graph

Daily Weather History Graph

Search for Another Location

Airport or City:

Astronomy

Jan. 25, 2012 Rise Set
Actual Time 7:01 AM EST 4:36 PM EST
Civil Twilight 6:30 AM EST 5:07 PM EST
Nautical Twilight 5:55 AM EST 5:42 PM EST
Astronomical Twilight 5:20 AM EST 6:16 PM EST
Moon 7:52 AM EST (1/25) 7:34 PM EST (1/25)
Length of Visible Light 10h 37m
Length of Day
9h 34m
Waxing Crescent, 6% of the Moon is Illuminated
Jan 25
Waxing Crescent
Jan 30
First Quarter
Feb 7
Full
Feb 14
Last Quarter
Feb 21
New

Hourly Weather History & Observations

Time (EST) Temp. Windchill Dew Point Humidity Pressure Visibility Wind Dir Wind Speed Gust Speed Precip Events Conditions
12:15 AM 37.4 °F 30.8 °F 32.0 °F 81% 29.94 in 10.0 mi WNW 9.2 mph - N/A   Overcast
12:35 AM 37.4 °F 32.1 °F 32.0 °F 81% 29.94 in 10.0 mi West 6.9 mph - N/A   Overcast
12:55 AM 37.4 °F 31.4 °F 30.2 °F 75% 29.95 in 10.0 mi WNW 8.1 mph - N/A   Overcast
1:15 AM 37.4 °F 30.3 °F 28.4 °F 70% 29.95 in 10.0 mi West 10.4 mph - N/A   Overcast
1:35 AM 37.4 °F 29.3 °F 26.6 °F 65% 29.96 in 10.0 mi WNW 12.7 mph - N/A   Overcast
1:55 AM 37.4 °F 30.3 °F 24.8 °F 60% 29.96 in 10.0 mi WNW 10.4 mph 16.1 mph N/A   Overcast
2:15 AM 35.6 °F 28.6 °F 24.8 °F 65% 29.97 in 10.0 mi WNW 9.2 mph - N/A   Overcast
2:35 AM 35.6 °F 28.6 °F 24.8 °F 65% 29.97 in 10.0 mi WNW 9.2 mph - N/A   Scattered Clouds
2:55 AM 35.6 °F 28.6 °F 23.0 °F 60% 29.97 in 10.0 mi West 9.2 mph - N/A   Clear
3:35 AM 32.0 °F 24.8 °F 24.8 °F 75% 29.98 in 10.0 mi West 8.1 mph - N/A   Clear
3:55 AM 30.2 °F 23.4 °F 24.8 °F 80% 29.98 in 10.0 mi West 6.9 mph - N/A   Clear
4:15 AM 30.2 °F 22.6 °F 24.8 °F 80% 29.98 in 10.0 mi West 8.1 mph - N/A   Clear
4:35 AM 30.2 °F 22.6 °F 24.8 °F 80% 29.99 in 10.0 mi West 8.1 mph - N/A   Clear
4:55 AM 30.2 °F 22.6 °F 24.8 °F 80% 30.00 in 10.0 mi West 8.1 mph - N/A   Clear
5:15 AM 30.2 °F 22.6 °F 24.8 °F 80% 30.01 in 10.0 mi West 8.1 mph - N/A   Clear
5:35 AM 30.2 °F 21.3 °F 23.0 °F 75% 30.01 in 10.0 mi West 10.4 mph - N/A   Clear
5:55 AM 32.0 °F 24.2 °F 24.8 °F 75% 30.01 in 10.0 mi West 9.2 mph - N/A   Mostly Cloudy
6:15 AM 33.8 °F 27.0 °F 24.8 °F 70% 30.02 in 10.0 mi West 8.1 mph - N/A   Overcast
6:35 AM 33.8 °F 25.8 °F 24.8 °F 70% 30.02 in 10.0 mi West 10.4 mph - N/A   Mostly Cloudy
6:55 AM 33.8 °F 26.4 °F 24.8 °F 70% 30.02 in 10.0 mi West 9.2 mph - N/A   Mostly Cloudy
7:15 AM 33.8 °F 25.8 °F 24.8 °F 70% 30.03 in 10.0 mi West 10.4 mph - N/A   Overcast
7:35 AM 33.8 °F 26.4 °F 24.8 °F 70% 30.04 in 10.0 mi West 9.2 mph - N/A   Scattered Clouds
7:55 AM 33.8 °F 25.3 °F 24.8 °F 70% 30.05 in 10.0 mi West 11.5 mph - N/A   Scattered Clouds
8:15 AM 35.6 °F 26.2 °F 23.0 °F 60% 30.05 in 10.0 mi WNW 15.0 mph 24.2 mph N/A   Mostly Cloudy
8:35 AM 35.6 °F 27.5 °F 21.2 °F 56% 30.05 in 10.0 mi WNW 11.5 mph 21.9 mph N/A   Overcast
8:55 AM 35.6 °F 26.6 °F 21.2 °F 56% 30.05 in 10.0 mi WNW 13.8 mph 17.3 mph N/A   Partly Cloudy
9:15 AM 35.6 °F 26.6 °F 19.4 °F 52% 30.07 in 10.0 mi WNW 13.8 mph 23.0 mph N/A   Clear
9:35 AM 35.6 °F 25.5 °F 19.4 °F 52% 30.07 in 10.0 mi West 17.3 mph 23.0 mph N/A   Scattered Clouds
9:55 AM 37.4 °F 28.5 °F 21.2 °F 52% 30.08 in 10.0 mi WNW 15.0 mph 23.0 mph N/A   Partly Cloudy
10:15 AM 35.6 °F 24.2 °F 19.4 °F 52% 30.08 in 10.0 mi West 21.9 mph 31.1 mph N/A   Clear
10:35 AM 37.4 °F 27.8 °F 19.4 °F 48% 30.08 in 10.0 mi WNW 17.3 mph 23.0 mph N/A   Clear
10:55 AM 37.4 °F 26.6 °F 21.2 °F 52% 30.08 in 10.0 mi WNW 21.9 mph 28.8 mph N/A   Clear
11:15 AM 37.4 °F 25.9 °F 19.4 °F 48% 30.07 in 10.0 mi WNW 25.3 mph 35.7 mph N/A   Clear
11:35 AM 37.4 °F 27.2 °F 21.2 °F 52% 30.07 in 10.0 mi WNW 19.6 mph 29.9 mph N/A   Partly Cloudy
11:55 AM 37.4 °F 27.8 °F 21.2 °F 52% 30.06 in 10.0 mi West 17.3 mph 24.2 mph N/A   Mostly Cloudy
12:15 PM 37.4 °F 28.9 °F 21.2 °F 52% 30.05 in 10.0 mi WNW 13.8 mph 24.2 mph N/A   Mostly Cloudy
12:35 PM 37.4 °F 29.3 °F 21.2 °F 52% 30.03 in 10.0 mi NW 12.7 mph 21.9 mph N/A   Partly Cloudy
12:55 PM 37.4 °F 27.8 °F 21.2 °F 52% 30.04 in 10.0 mi WNW 17.3 mph 32.2 mph N/A   Clear
1:15 PM 37.4 °F 28.9 °F 21.2 °F 52% 30.04 in 10.0 mi WNW 13.8 mph 27.6 mph N/A   Partly Cloudy
1:35 PM 37.4 °F 27.8 °F 21.2 °F 52% 30.05 in 10.0 mi WNW 17.3 mph 25.3 mph N/A   Mostly Cloudy
1:55 PM 37.4 °F 29.8 °F 19.4 °F 48% 30.05 in 10.0 mi WNW 11.5 mph 20.7 mph N/A   Mostly Cloudy
2:15 PM 37.4 °F 28.5 °F 19.4 °F 48% 30.06 in 10.0 mi WNW 15.0 mph 20.7 mph N/A   Mostly Cloudy
2:35 PM 37.4 °F 29.8 °F 19.4 °F 48% 30.06 in 10.0 mi NW 11.5 mph 18.4 mph N/A   Mostly Cloudy
2:55 PM 35.6 °F 26.6 °F 19.4 °F 52% 30.07 in 10.0 mi West 13.8 mph 18.4 mph N/A   Clear
3:15 PM 35.6 °F 25.9 °F 19.4 °F 52% 30.06 in 10.0 mi WNW 16.1 mph 19.6 mph N/A   Clear
3:35 PM 35.6 °F 26.2 °F 19.4 °F 52% 30.07 in 10.0 mi West 15.0 mph 21.9 mph N/A   Clear
3:55 PM 35.6 °F 26.6 °F 19.4 °F 52% 30.07 in 10.0 mi West 13.8 mph - N/A   Clear
4:35 PM 33.8 °F 25.3 °F 19.4 °F 56% 30.08 in 10.0 mi WNW 11.5 mph 17.3 mph N/A   Clear
4:55 PM 33.8 °F 26.4 °F 19.4 °F 56% 30.08 in 10.0 mi WNW 9.2 mph - N/A   Clear
5:15 PM 33.8 °F 27.7 °F 19.4 °F 56% 30.09 in 10.0 mi WNW 6.9 mph - N/A   Clear
5:35 PM 32.0 °F 23.6 °F 19.4 °F 60% 30.08 in 10.0 mi WNW 10.4 mph - N/A   Clear
5:55 PM 32.0 °F 25.6 °F 19.4 °F 60% 30.09 in 10.0 mi WNW 6.9 mph - N/A   Clear
6:15 PM 32.0 °F 24.8 °F 17.6 °F 55% 30.10 in 10.0 mi WNW 8.1 mph - N/A   Clear
6:35 PM 30.2 °F 25.4 °F 19.4 °F 64% 30.10 in 10.0 mi WNW 4.6 mph - N/A   Clear
6:55 PM 30.2 °F 24.3 °F 19.4 °F 64% 30.10 in 10.0 mi NW 5.8 mph - N/A   Clear
7:15 PM 30.2 °F 23.4 °F 19.4 °F 64% 30.11 in 10.0 mi WNW 6.9 mph - N/A   Clear
7:35 PM 30.2 °F 24.3 °F 19.4 °F 64% 30.11 in 10.0 mi WNW 5.8 mph - N/A   Clear
7:55 PM 30.2 °F 24.3 °F 19.4 °F 64% 30.13 in 10.0 mi NW 5.8 mph - N/A   Clear
8:15 PM 30.2 °F 20.8 °F 17.6 °F 60% 30.12 in 10.0 mi NW 11.5 mph 16.1 mph N/A   Clear
8:35 PM 28.4 °F 18.5 °F 17.6 °F 64% 30.13 in 10.0 mi NW 11.5 mph 16.1 mph N/A   Clear
8:55 PM 28.4 °F 19.7 °F 17.6 °F 64% 30.13 in 10.0 mi NW 9.2 mph - N/A   Clear
9:15 PM 28.4 °F 18.5 °F 17.6 °F 64% 30.13 in 10.0 mi WNW 11.5 mph - N/A   Clear
9:35 PM 28.4 °F 19.7 °F 15.8 °F 59% 30.12 in 10.0 mi NW 9.2 mph - N/A   Clear
9:55 PM 28.4 °F 24.6 °F 17.6 °F 64% 30.14 in 10.0 mi NNW 3.5 mph - N/A   Clear
10:15 PM 28.4 °F 18.5 °F 17.6 °F 64% 30.13 in 10.0 mi WNW 11.5 mph - N/A   Clear
10:35 PM 28.4 °F 20.4 °F 17.6 °F 64% 30.12 in 10.0 mi West 8.1 mph - N/A   Clear
10:55 PM 28.4 °F 23.3 °F 17.6 °F 64% 30.12 in 10.0 mi NNW 4.6 mph - N/A   Clear
11:35 PM 28.4 °F 19.1 °F 17.6 °F 64% 30.13 in 10.0 mi WNW 10.4 mph - N/A   Mostly Cloudy
11:55 PM 28.4 °F 19.1 °F 17.6 °F 64% 30.13 in 10.0 mi WNW 10.4 mph - N/A   Overcast